N2YJJ-2 Weather Reports


Display with metric or nautical units.
time (UTC)temp
F
wind
direction
speed
MPH
gust
MPH
rain 1hr
in
rain 24hr
in
rain mn
in
humidity
%
barometer
mb
20260507190004 54 332 1.0 3.0 0.00 0.11 0.00 60 1016.8
20260507185003 55 276 3.0 5.0 0.00 0.11 0.00 53 1016.8
20260507184003 55 301 2.0 3.0 0.00 0.11 0.00 55 1016.8
20260507183003 55 287 1.0 3.0 0.00 0.11 0.00 56 1016.9
20260507182003 56 355 2.0 5.0 0.00 0.11 0.00 56 1016.8
20260507181003 56 299 1.0 6.0 0.00 0.11 0.00 55 1016.7
20260507180003 57 350 3.0 6.0 0.00 0.11 0.00 54 1016.9
20260507175003 57 340 2.0 5.0 0.00 0.11 0.00 59 1016.9
20260507174003 56 332 2.0 5.0 0.00 0.11 0.00 57 1017.1
20260507173004 57 305 1.0 3.0 0.00 0.11 0.00 61 1017.1
20260507172004 56 41 1.0 5.0 0.00 0.11 0.00 56 1017.1
20260507171003 56 209 2.0 6.0 0.00 0.11 0.00 57 1017.2
20260507170004 56 336 2.0 5.0 0.00 0.11 0.00 59 1017.3
20260507164003 55 253 2.0 5.0 0.00 0.11 0.00 65 1017.6
20260507163004 54 342 3.0 6.0 0.00 0.11 0.00 66 1017.8
20260507162003 53 48 1.0 6.0 0.00 0.11 0.00 73 1018.0
20260507161004 53 25 3.0 8.0 0.00 0.11 0.00 69 1018.1
20260507160003 53 314 2.0 6.0 0.00 0.11 0.00 69 1018.2
20260507155004 54 287 1.0 3.0 0.00 0.11 0.00 69 1018.2
20260507152003 53 288 3.0 3.0 0.00 0.11 0.00 68 1018.3
20260507150003 53 281 1.0 3.0 0.00 0.11 0.00 72 1018.4
20260507145003 51 131 2.0 8.0 0.00 0.11 0.00 74 1018.5
20260507144003 51 67 1.0 7.0 0.00 0.11 0.00 74 1018.6
20260507143003 50 37 1.0 3.0 0.00 0.12 0.00 77 1018.6
20260507142003 49 17 2.0 3.0 0.00 0.12 0.00 78 1018.6
20260507141003 48 256 1.0 3.0 0.00 0.12 0.00 75 1018.6
20260507140005 47 219 2.0 3.0 0.00 0.12 0.00 78 1018.7
20260507134004 45 45 1.0 3.0 0.00 0.12 0.00 85 1018.8
20260507133004 44 71 1.0 3.0 0.00 0.12 0.00 86 1018.8
20260507132003 43 130 0.0 3.0 0.00 0.12 0.00 88 1019.0
20260507131004 42 139 2.0 3.0 0.00 0.13 0.00 91 1019.0
20260507130004 41 209 1.0 3.0 0.00 0.13 0.00 92 1019.2
20260507125004 41 101 0.0 2.0 0.00 0.13 0.00 96 1019.2
20260507124003 41 101 1.0 2.0 0.00 0.13 0.00 97 1019.2
20260507123004 40 101 0.0 2.0 0.00 0.13 0.00 97 1019.3
20260507122005 40 101 0.0 0.0 0.00 0.14 0.00 97 1019.2
20260507121004 40 101 0.0 0.0 0.00 0.14 0.00 97 1019.1
20260507120001 39 101 0.0 2.0 0.00 0.14 0.00 98 1019.3
20260507115001 39 101 0.0 2.0 0.00 0.14 0.00 98 1019.2
20260507113001 39 357 0.0 0.0 0.00 0.15 0.00 98 1019.2
20260507112001 39 357 0.0 2.0 0.00 0.16 0.00 98 1019.1
20260507111002 38 357 0.0 2.0 0.00 0.17 0.00 98 1019.1
20260507104003 39 0 1.0 3.0 0.00 0.18 0.00 98 1018.5
20260507103002 39 47 0.0 1.0 0.00 0.19 0.00 98 1018.2
20260507102001 39 15 0.0 0.0 0.00 0.19 0.00 98 1018.4
20260507101001 39 15 0.0 0.0 0.00 0.20 0.00 98 1018.4
20260507100002 39 15 0.0 0.0 0.00 0.21 0.00 98 1018.4
20260507095001 39 15 0.0 0.0 0.00 0.21 0.00 98 1018.6
20260507094002 40 15 0.0 0.0 0.00 0.21 0.00 98 1018.5
20260507093001 40 15 0.0 0.0 0.00 0.22 0.00 98 1018.4
20260507091002 40 15 0.0 1.0 0.00 0.24 0.00 99 1018.5
20260507090002 40 15 0.0 0.0 0.00 0.25 0.00 98 1018.2
20260507085001 40 15 0.0 0.0 0.00 0.25 0.00 98 1018.3
20260507083001 39 15 0.0 0.0 0.00 0.27 0.00 98 1018.5
20260507082001 39 15 0.0 0.0 0.00 0.27 0.00 98 1018.6
20260507075001 39 15 0.0 0.0 0.00 0.30 0.00 98 1018.3
20260507073002 39 15 0.0 0.0 0.00 0.33 0.00 97 1018.3
20260507071001 39 15 0.0 0.0 0.00 0.36 0.00 97 1018.3
20260507070003 40 15 0.0 2.0 0.00 0.37 0.00 97 1018.2
20260507064002 41 15 0.0 1.0 0.00 0.39 0.00 98 1018.4
20260507063002 41 15 1.0 2.0 0.00 0.39 0.00 98 1018.6
20260507062002 41 357 1.0 2.0 0.00 0.40 0.00 97 1018.8
20260507061001 41 339 0.0 0.0 0.00 0.40 0.00 98 1018.7
20260507060002 41 339 0.0 0.0 0.00 0.41 0.00 98 1018.6
20260507055002 41 339 0.0 0.0 0.00 0.41 0.00 98 1018.6
20260507053003 41 339 0.0 0.0 0.00 0.43 0.00 98 1018.6
20260507052003 42 339 0.0 0.0 0.00 0.43 0.00 98 1018.9
20260507051002 42 339 0.0 1.0 0.00 0.44 0.00 98 1018.9
20260507050005 42 339 0.0 0.0 0.00 0.45 0.00 98 1018.8
20260507045003 42 339 0.0 0.0 0.00 0.46 0.00 98 1019.1
20260507044004 41 339 0.0 0.0 0.00 0.47 0.00 98 1019.1
20260507043002 42 339 0.0 0.0 0.00 0.47 0.00 97 1019.1
20260507042003 42 339 0.0 0.0 0.00 0.47 0.00 97 1018.9
20260507041003 42 339 0.0 0.0 0.00 0.47 0.00 97 1019.1
20260507040003 42 339 0.0 0.0 0.00 0.47 0.00 97 1018.9
20260507035002 42 339 0.0 0.0 0.00 0.47 0.47 97 1019.0
20260507034002 42 339 0.0 0.0 0.00 0.48 0.47 97 1019.0
20260507033002 42 339 0.0 0.0 0.00 0.48 0.47 97 1018.9
20260507032002 42 339 0.0 0.0 0.00 0.49 0.47 97 1019.0
20260507031002 42 339 0.0 0.0 0.00 0.50 0.47 97 1018.9
20260507030002 42 339 0.0 0.0 0.00 0.51 0.47 97 1018.9
20260507025002 43 339 0.0 0.0 0.00 0.52 0.47 97 1019.0
20260507024003 43 339 0.0 0.0 0.00 0.53 0.47 97 1018.8
20260507023004 43 339 0.0 2.0 0.00 0.54 0.47 97 1018.8
20260507022002 43 325 0.0 1.0 0.00 0.55 0.47 97 1019.0
20260507020003 43 324 0.0 0.0 0.00 0.57 0.47 97 1019.1
20260507015003 43 324 0.0 0.0 0.00 0.57 0.47 97 1019.0
20260507014003 43 324 0.0 0.0 0.00 0.58 0.47 97 1019.0
20260507013002 43 324 0.0 0.0 0.00 0.59 0.47 97 1018.8
20260507012002 43 324 0.0 0.0 0.00 0.60 0.47 97 1018.7
20260507010002 43 324 0.0 0.0 0.00 0.61 0.47 97 1018.4
20260507005002 43 324 0.0 1.0 0.00 0.62 0.47 97 1018.3
20260507003002 43 324 0.0 0.0 0.00 0.66 0.47 96 1018.2
20260507002002 43 324 0.0 1.0 0.00 0.68 0.47 96 1018.2
20260507001003 43 324 0.0 0.0 0.00 0.69 0.47 96 1018.1
20260507000002 44 324 0.0 0.0 0.00 0.70 0.47 96 1017.9
20260506235002 44 324 0.0 0.0 0.00 0.71 0.47 96 1017.9
20260506234002 44 324 0.0 1.0 0.00 0.72 0.47 96 1017.9
20260506233003 44 343 0.0 2.0 0.00 0.73 0.47 97 1017.8
20260506231003 44 347 0.0 3.0 0.00 0.75 0.47 97 1017.7
20260506225003 44 25 1.0 3.0 0.01 0.77 0.47 96 1017.4
20260506224003 44 23 1.0 5.0 0.01 0.78 0.47 96 1017.3
20260506223003 43 347 0.0 3.0 0.02 0.80 0.47 96 1017.3
20260506222002 43 297 0.0 2.0 0.02 0.83 0.47 96 1017.2
20260506215004 43 358 2.0 3.0 0.05 0.91 0.46 94 1016.8
20260506213002 45 353 3.0 7.0 0.09 0.95 0.45 94 1016.2
20260506212004 46 4 3.0 8.0 0.09 0.97 0.45 93 1015.9
20260506211002 47 346 1.0 3.0 0.08 0.97 0.44 92 1015.7
20260506205003 50 342 1.0 5.0 0.05 0.94 0.41 92 1015.5
20260506204002 50 53 0.0 3.0 0.02 0.91 0.38 91 1015.4
20260506203003 51 117 0.0 0.0 0.00 0.89 0.36 88 1015.2
20260506201003 51 135 1.0 3.0 0.00 0.89 0.36 85 1015.1
20260506200004 51 156 3.0 3.0 0.00 0.89 0.36 85 1015.1
20260506195003 51 244 1.0 2.0 0.00 0.89 0.36 84 1015.2
20260506194003 51 168 2.0 3.0 0.00 0.89 0.36 85 1015.3
20260506193003 51 89 2.0 3.0 0.00 0.89 0.36 86 1015.3
20260506191003 51 359 1.0 3.0 0.00 0.89 0.36 85 1015.2